Flag for Russia Weather past 2 weeks in Surgut, Russia

Now
41 °F

Light rain. Fog.


Feels Like: 39 °F
Forecast: 34 / 51 °F
Wind: 3 mph from Southeast

Location: Surgut Airport

Current Time: Apr 21, 2015 at 5:54:59 PM

Latest Report: Apr 21, 2015 at 5:30 PM


Visibility: 2 mi

Pressure: 29.53 "Hg

Humidity: 93%

Dew point: 39 °F

Location of SurgutLocation

Historic Weather in Surgut — Graph

°F

Surgut temperature yesterday

Maximum temperature yesterday: 37 °F (at 3:30 PM)
Minimum temperature yesterday: 28 °F (at 10:00 PM)
Average temperature yesterday: 33 °F

Past Weeks' High & Low Weather Summary

 TemperatureHumidityPressure
High50 °F (Apr 7, 2:30 PM)100% (Apr 8, 9:00 PM)30.51 "Hg (Apr 8, 9:00 PM)
Low21 °F (Apr 16, 11:30 PM)32% (Apr 7, 2:30 PM)29.39 "Hg (Apr 10, 5:30 PM)
Average36 °F77%29.74 "Hg
* Reported Apr 6 5:00 PM — Apr 21 5:00 PM, Surgut, Weather by CustomWeather, © 2015

Note: Actual official high and low records may vary slightly from our data, if they occured in-between our weather recording intervals... More about our weather records

Advertising

Surgut weather history for previous 24 hours

 ConditionsComfort  
Time TempWeatherWind HumidityBarometerVisibility
5:00 PM
Tue, Apr 21
41 °FLight rain. Fog.3 mph93%29.56 "Hg1 mi
4:30 PM41 °FLight rain. Fog.3 mph93%29.56 "Hg1 mi
4:00 PM39 °FScattered clouds.6 mph93%29.56 "Hg4 mi
3:30 PM39 °FPartly sunny.6 mph93%29.56 "Hg4 mi
3:00 PM39 °FPartly sunny.8 mph93%29.56 "Hg4 mi
2:30 PM39 °FScattered clouds.13 mph93%29.56 "Hg4 mi
2:00 PM39 °FScattered clouds.8 mph87%29.56 "Hg4 mi
1:30 PM37 °FSprinkles. Mostly cloudy.10 mph93%29.56 "Hg4 mi
1:00 PM37 °FLight rain. Mostly cloudy.13 mph87%29.56 "Hg4 mi
12:30 PM37 °FMostly cloudy.15 mph81%29.59 "Hg4 mi
12:00 PM36 °FLight rain. Mostly cloudy.10 mph87%29.59 "Hg4 mi
11:30 AM36 °FSprinkles. Scattered clouds.15 mph81%29.62 "Hg4 mi
11:00 AM37 °FScattered clouds.17 mph75%29.59 "Hg4 mi
10:30 AM36 °FPartly sunny.10 mph75%29.62 "Hg4 mi
10:00 AM36 °FPartly sunny.15 mph75%29.65 "Hg4 mi
9:30 AM34 °FSprinkles. Partly sunny.13 mph75%29.68 "Hg4 mi
9:00 AM34 °FPartly sunny.13 mph70%29.71 "Hg4 mi
8:30 AM34 °FPartly sunny.8 mph70%29.71 "Hg4 mi
8:00 AM34 °FOvercast.10 mph70%29.74 "Hg4 mi
7:30 AM34 °FPartly sunny.13 mph70%29.77 "Hg4 mi
7:00 AM32 °FPartly sunny.8 mph75%29.77 "Hg4 mi
6:30 AM32 °FPartly sunny.10 mph75%29.77 "Hg4 mi
6:00 AM30 °FPartly sunny.6 mph86%29.80 "Hg4 mi
5:30 AM28 °FPartly sunny.6 mph93%29.80 "Hg4 mi
5:00 AM28 °FPassing clouds.3 mph93%29.80 "Hg4 mi
4:30 AM27 °FPassing clouds.1 mph93%29.83 "Hg4 mi
4:00 AM25 °FPassing clouds.3 mph100%29.83 "Hg4 mi
3:30 AM25 °FPassing clouds.1 mph93%29.83 "Hg4 mi
3:00 AM25 °FPassing clouds.No wind93%29.83 "Hg4 mi
2:30 AM25 °FClear.No wind93%29.83 "Hg4 mi
2:00 AM27 °FClear.No wind93%29.83 "Hg4 mi
1:30 AM27 °FClear.No wind93%29.83 "Hg4 mi
1:00 AM27 °FClear.1 mph86%29.83 "Hg4 mi
12:30 AM27 °FClear.1 mph86%29.83 "Hg4 mi
12:00 AM27 °FClear.No wind86%29.83 "Hg4 mi
11:30 PM
Mon, Apr 20
28 °FPassing clouds.1 mph86%29.83 "Hg4 mi
11:00 PM28 °FClear.1 mph80%29.83 "Hg4 mi
10:30 PM28 °FClear.1 mph86%29.83 "Hg4 mi
10:00 PM28 °FClear.3 mph80%29.83 "Hg4 mi
9:30 PM30 °FPassing clouds.1 mph80%29.83 "Hg4 mi
9:00 PM30 °FPassing clouds.3 mph75%29.80 "Hg4 mi
8:30 PM32 °FPassing clouds.3 mph69%29.80 "Hg4 mi
8:00 PM34 °FPassing clouds.6 mph65%29.80 "Hg4 mi
7:30 PM34 °FScattered clouds.6 mph70%29.80 "Hg4 mi
7:00 PM36 °FPartly sunny.8 mph65%29.80 "Hg4 mi
6:30 PM36 °FPartly sunny.8 mph70%29.80 "Hg4 mi
6:00 PM36 °FPartly sunny.8 mph65%29.80 "Hg4 mi
5:30 PM36 °FPartly sunny.10 mph70%29.77 "Hg4 mi
5:00 PM36 °FPartly sunny.15 mph65%29.77 "Hg4 mi
Weather by CustomWeather, © 2015

See weather overviewHow to use our weather pages